Flag for Netherlands Weather past 2 weeks in Tilburg, Netherlands

Now
59 °F

Broken clouds.


Feels Like: 57 °F
Forecast: 50 / 60 °F
Wind: 12 mph from Southwest

Location: Gilze-Rijen

Current Time: May 6, 2015 at 12:34:30 PM

Latest Report: May 6, 2015 at 11:55 AM


Visibility: N/A

Pressure: 29.80 "Hg

Humidity: 59%

Dew point: 45 °F

Location of TilburgLocation

Historic Weather in Tilburg — Graph

°F

Tilburg temperature yesterday

Maximum temperature yesterday: 72 °F (at 12:25 PM)
Minimum temperature yesterday: 52 °F (at 10:55 PM)
Average temperature yesterday: 61 °F

Past Weeks' High & Low Weather Summary

 TemperatureHumidityPressure
High73 °F (Apr 24, 4:25 PM)100% (Apr 22, 1:55 AM)30.48 "Hg (Apr 22, 1:55 AM)
Low28 °F (Apr 28, 5:25 AM)35% (Apr 21, 4:25 PM)29.30 "Hg (May 5, 7:25 AM)
Average52 °F72%29.88 "Hg
* Reported Apr 21 11:25 AM — May 6 11:25 AM, Tilburg, Weather by CustomWeather, © 2015

Note: Actual official high and low records may vary slightly from our data, if they occured in-between our weather recording intervals... More about our weather records

Advertising

Tilburg weather history for previous 24 hours

 ConditionsComfort  
Time TempWeatherWind HumidityBarometerVisibility
11:25 AM
Wed, May 6
57 °FBroken clouds.17 mph59%29.80 "HgN/A
10:55 AM57 °FPartly sunny.14 mph59%29.80 "HgN/A
10:25 AM55 °FPartly sunny.16 mph67%29.80 "HgN/A
9:55 AM55 °FBroken clouds.20 mph67%29.80 "HgN/A
9:25 AM55 °FScattered clouds.17 mph63%29.80 "HgN/A
9:03 AM54 °FPassing clouds.16 mph72%29.80 "HgN/A
8:25 AM54 °FCool.15 mph72%29.80 "HgN/A
7:55 AM52 °FCool.14 mph77%29.77 "HgN/A
7:25 AM50 °FCool.14 mph76%29.77 "HgN/A
6:55 AM50 °FCool.10 mph76%29.77 "HgN/A
6:25 AM50 °FCool.12 mph76%29.77 "HgN/A
5:55 AM48 °FCool.9 mph76%29.77 "HgN/A
4:55 AM50 °FCool.9 mph71%29.77 "HgN/A
4:25 AM50 °FCool.10 mph71%29.77 "HgN/A
3:55 AM50 °FCool.9 mph76%29.77 "HgN/A
3:25 AM50 °FCool.8 mph76%29.77 "HgN/A
2:55 AM52 °FCool.9 mph72%29.77 "HgN/A
2:25 AM54 °FCool.8 mph67%29.77 "HgN/A
1:55 AM54 °FCool.8 mph67%29.77 "HgN/A
1:25 AM54 °FCool.7 mph67%29.77 "HgN/A
12:55 AM55 °FCool.8 mph63%29.74 "HgN/A
11:55 PM
Tue, May 5
54 °FCool.9 mph72%29.74 "HgN/A
11:25 PM52 °FCool.8 mph72%29.74 "HgN/A
10:55 PM52 °FCool.8 mph72%29.74 "HgN/A
10:25 PM54 °FCool.7 mph67%29.74 "HgN/A
9:55 PM54 °FPassing clouds.6 mph67%29.71 "HgN/A
9:25 PM54 °FCool.3 mph67%29.71 "HgN/A
8:55 PM55 °FRefreshingly cool.6 mph59%29.71 "HgN/A
8:25 PM59 °FRefreshingly cool.6 mph48%29.71 "HgN/A
7:55 PM61 °FPassing clouds.12 mph45%29.71 "HgN/A
7:25 PM61 °FRefreshingly cool.14 mph45%29.71 "HgN/A
6:55 PM61 °FScattered clouds.16 mph48%29.68 "HgN/A
6:25 PM61 °FPassing clouds.18 mph45%29.68 "HgN/A
5:55 PM61 °FPassing clouds.17 mph48%29.68 "HgN/A
5:25 PM61 °FRefreshingly cool.21 mph45%29.65 "HgN/A
4:55 PM61 °FScattered clouds.22 mph48%29.65 "HgN/A
4:25 PM63 °FMild.18 mph45%29.62 "HgN/A
3:55 PM61 °FScattered clouds.22 mph55%29.59 "HgN/A
3:25 PM61 °FBroken clouds.21 mph59%29.56 "HgN/A
2:55 PM61 °FScattered clouds.16 mph72%29.53 "HgN/A
2:25 PM59 °FBroken clouds.17 mph82%29.50 "HgN/A
1:55 PM61 °FSprinkles. Broken clouds.16 mph88%29.45 "HgN/A
1:25 PM63 °FThunderstorms. Scattered clouds.24 mph83%29.42 "HgN/A
12:55 PM72 °FScattered clouds.21 mph57%29.39 "HgN/A
12:25 PM72 °FScattered clouds.20 mph65%29.39 "HgN/A
Weather by CustomWeather, © 2015

See weather overviewHow to use our weather pages